Temperature
11 11 11 11 12 12 12 12 12 12 12 12 12 12 12 12 12 12 12 11 11 11 11 11 11 11 11 10 10 10 10 10 10 10 9 9 9 9 9 9 9 9 9
11 10 11 11 11 11 12 12 12 12 12 12 12 12 12 12 11 11 11 11 11 11 11 11 10 10 10 10 10 10 9 9 9 9 8 8 8 9 9 9 9 8 8
10 10 10 11 11 11 11 12 12 12 12 11 11 11 11 11 11 11 11 11 10 10 10 10 10 10 10 10 10 9 9 9 8 8 8 8 8 8 8 8 8 8 8
10 9 10 10 11 11 11 11 11 11 11 11 11 11 11 11 11 11 10 10 10 10 10 10 9 9 9 9 9 9 9 8 8 8 8 7 7 7 7 7 7 7 7
9 9 9 10 11 11 11 11 11 11 11 11 11 11 10 10 10 10 10 10 9 9 9 9 9 9 9 9 9 8 8 8 8 7 7 7 7 6 6 6 6 7 7
8 8 9 9 10 10 10 10 10 10 10 10 10 10 10 10 10 10 10 9 9 9 9 9 9 8 8 8 8 8 8 8 7 7 7 7 6 6 6 5 6 6 6
7 7 8 8 9 9 9 10 10 10 10 10 10 10 10 9 9 9 9 9 9 9 8 8 8 8 8 8 8 7 7 7 7 7 7 6 6 6 5 5 5 5 5
6 6 7 7 8 9 9 9 9 9 9 9 9 9 9 9 9 9 9 8 8 8 8 8 7 7 7 7 7 7 7 7 7 7 6 6 6 5 5 5 4 4 4
5 6 6 6 7 8 8 8 8 8 9 9 9 9 8 8 8 8 8 8 8 7 7 7 7 7 7 7 7 6 6 6 6 6 6 6 5 5 5 4 4 4 4
5 5 5 5 6 7 7 7 7 8 8 8 8 8 8 8 7 7 7 7 7 7 7 7 6 6 6 6 6 6 6 6 6 6 5 5 5 5 4 4 4 3 3
4 4 4 5 5 6 6 6 6 7 7 7 7 7 7 7 7 7 7 7 6 6 6 6 6 6 6 6 5 5 5 5 5 5 5 5 4 4 4 4 3 3 3
3 3 4 4 4 5 5 6 6 6 6 6 6 7 7 7 6 6 6 6 6 6 6 5 5 5 5 5 5 5 5 5 5 5 4 4 4 4 4 3 3 3 3
2 3 3 3 3 4 5 5 5 5 6 6 6 6 6 6 6 6 6 6 5 5 5 5 5 5 5 5 5 5 4 4 4 4 4 4 3 3 3 3 2 2 2
2 2 2 2 3 3 4 4 5 5 5 5 5 5 5 5 5 5 5 5 5 5 5 5 5 4 4 4 4 4 4 4 3 3 3 3 3 3 3 2 2 2 2
1 2 2 2 2 3 3 4 4 4 4 4 5 5 5 5 5 5 5 5 5 5 5 4 4 4 4 4 4 4 3 3 3 3 3 3 2 2 2 2 2 2 1
1 1 1 1 2 2 3 3 3 3 4 4 4 4 4 4 4 4 4 4 4 4 4 4 4 4 3 3 3 3 3 2 2 2 2 2 2 2 2 2 1 1 1
0 0 1 1 2 2 2 3 3 3 3 3 3 3 3 4 4 4 4 4 4 4 3 3 3 3 3 3 3 2 2 2 2 2 1 1 2 1 1 1 1 1 1
0 0 0 1 1 2 2 2 2 2 3 3 3 3 3 3 3 3 3 3 3 3 3 3 2 2 2 2 2 2 2 1 1 1 1 1 1 0 0 0 0 0 0
-0 -0 0 0 1 1 1 1 2 2 2 2 2 2 2 2 2 2 2 2 2 2 2 2 2 2 2 2 1 1 1 1 1 1 0 0 0 -0 -0 -0 -0 -0 -0
-0 -0 -0 0 0 0 1 1 1 1 1 1 1 1 1 1 1 2 2 2 2 1 1 1 1 1 1 1 1 0 0 -0 -0 -0 -0 -0 -1 -1 -1 -1 -1 -1 -1
-1 -1 -0 -0 -0 -0 -0 0 0 0 0 0 1 1 1 1 1 1 1 1 1 1 1 0 0 0 0 0 0 -0 -0 -1 -1 -1 -1 -1 -1 -1 -1 -1 -1 -1 -1
-1 -1 -1 -1 -1 -1 -1 -1 -1 -0 -0 -0 -0 0 0 0 0 0 0 0 0 -0 -0 -0 -0 -0 -0 -0 -1 -1 -1 -1 -1 -1 -1 -2 -1 -1 -1 -1 -1 -1 -1
-2 -2 -2 -1 -1 -1 -1 -1 -1 -1 -1 -1 -1 -1 -1 -0 -0 -0 -0 -1 -1 -1 -1 -1 -1 -1 -1 -1 -1 -1 -1 -1 -2 -2 -2 -2 -2 -2 -2 -2 -2 -2 -2
-2 -2 -2 -2 -2 -2 -2 -2 -1 -2 -1 -1 -1 -1 -1 -1 -1 -1 -1 -1 -1 -2 -2 -2 -2 -2 -2 -2 -2 -2 -2 -2 -2 -2 -2 -2 -2 -2 -2 -2 -2 -2 -2
-3 -3 -3 -2 -2 -2 -2 -2 -2 -2 -2 -2 -2 -2 -2 -2 -2 -2 -2 -2 -2 -2 -2 -2 -2 -3 -2 -2 -2 -2 -2 -2 -2 -2 -2 -2 -2 -2 -2 -2 -3 -3 -3
-3 -3 -3 -3 -3 -3 -3 -3 -3 -3 -2 -2 -2 -2 -2 -2 -2 -2 -2 -2 -3 -3 -3 -3 -3 -3 -3 -3 -3 -3 -3 -3 -3 -3 -3 -3 -3 -3 -3 -3 -3 -3 -3
Wind_Speed
8 7 8 9 9 9 10 10 10 9 8 6 6 5 5 4 3 3 3 4 3 3 3 2 2 2 1 2 2 1 1 1 2 2 3 3 4 3 3 4 4 4 5
7 7 8 9 10 10 11 10 10 10 9 7 6 4 4 3 3 3 3 3 3 3 2 2 2 2 2 2 2 2 2 1 1 2 3 3 3 3 3 4 4 5 5
8 8 8 9 9 10 11 10 10 10 10 8 6 5 4 3 3 3 3 3 2 2 2 2 2 2 2 2 2 2 3 2 2 2 2 3 3 4 3 4 5 5 5
7 7 8 8 9 9 8 9 10 10 10 9 8 9 6 5 5 4 3 3 3 3 2 2 2 2 2 2 2 3 3 3 3 2 3 4 4 4 4 4 4 6 6
6 7 7 7 7 7 7 8 9 9 9 9 9 9 7 5 4 4 4 3 3 3 2 2 2 2 2 2 2 3 3 3 3 3 3 3 4 5 5 6 6 6 5
4 5 5 5 6 6 7 7 9 9 9 9 9 9 8 6 6 6 5 4 2 2 2 2 2 2 1 2 2 3 4 4 4 4 4 4 4 4 5 6 8 7 6
3 4 5 5 6 7 7 8 9 9 9 9 8 8 8 7 7 6 5 4 3 2 2 2 2 2 2 2 2 3 4 4 5 5 5 5 5 5 6 6 7 8 7
1 3 4 4 5 6 7 8 8 8 8 8 7 7 6 5 4 5 4 4 3 2 2 2 2 2 2 2 3 3 4 4 4 5 5 5 5 5 5 6 6 7 7
1 2 3 3 4 5 6 7 7 7 7 7 6 6 6 5 4 4 4 3 3 2 2 2 2 2 2 3 3 3 4 4 4 5 5 5 4 5 5 5 6 6 8
2 3 3 3 3 4 4 5 5 6 6 6 5 4 5 4 4 4 4 3 2 2 2 2 2 3 3 3 3 3 3 4 4 4 5 5 4 5 4 5 5 6 8
3 3 3 4 4 4 4 4 4 4 5 5 5 5 4 4 4 3 3 3 2 2 2 2 2 3 3 3 3 4 4 4 4 4 5 6 6 5 5 5 5 6 6
3 4 4 4 4 4 4 4 4 4 4 4 4 4 4 4 4 3 3 3 2 2 2 2 2 3 3 3 4 4 4 5 5 5 6 6 5 6 6 5 6 6 6
4 4 4 4 4 4 4 4 3 3 3 4 4 4 4 4 3 3 2 2 2 2 1 2 2 3 3 3 4 4 5 5 5 6 6 6 6 7 6 6 6 6 6
4 4 4 4 4 4 4 4 3 3 3 3 3 3 3 3 2 2 1 1 1 1 2 2 2 3 3 4 4 4 5 5 5 5 5 6 6 7 7 6 6 6 6
3 4 4 4 4 4 4 4 3 3 3 3 3 2 2 2 2 1 1 1 1 1 1 2 2 3 3 3 4 4 4 5 5 5 5 5 6 7 6 5 6 5 5
3 3 3 3 3 3 3 3 3 3 3 3 2 2 2 2 1 1 0 0 1 1 1 2 2 3 3 3 5 5 4 5 5 5 5 5 5 5 6 7 7 7 7
3 3 2 2 2 2 2 2 2 2 3 3 2 2 2 1 1 0 0 1 1 1 2 2 3 4 4 4 5 5 4 4 5 5 5 4 4 5 5 5 6 6 7
3 3 2 2 2 2 2 2 2 2 2 2 2 2 2 1 0 0 1 1 1 2 2 3 3 4 4 4 4 4 4 4 4 5 5 5 5 4 5 5 5 5 5
2 2 2 2 2 2 2 2 2 2 2 2 2 2 2 1 1 1 1 2 2 2 2 3 3 3 3 3 4 4 3 3 4 4 4 4 4 4 5 5 5 6 5
2 2 2 3 3 2 2 2 2 2 1 1 2 2 2 2 2 2 2 2 2 2 2 3 3 3 3 3 3 4 2 3 3 3 3 3 4 4 5 5 5 6 6
3 2 2 2 2 2 2 2 2 1 2 2 2 2 2 2 2 2 2 2 2 2 2 2 3 3 3 3 3 4 3 3 3 3 3 3 4 5 5 5 4 5 6
3 3 2 2 2 2 1 2 1 2 2 1 1 2 2 2 2 2 2 1 1 2 2 2 2 2 2 3 3 3 3 4 3 3 3 3 4 5 6 4 4 6 6
2 2 2 2 2 2 2 1 2 2 2 1 1 2 3 2 2 2 2 1 1 1 2 2 2 2 2 2 3 3 4 4 3 3 3 4 5 5 4 4 5 5 4
1 1 2 1 1 2 2 2 2 2 2 2 2 2 2 2 2 2 2 1 1 2 2 2 2 2 3 3 2 2 2 2 3 3 3 4 4 4 4 4 4 3 4
1 1 1 1 2 2 2 2 2 2 2 2 2 2 2 2 2 2 2 2 2 2 3 2 2 3 3 3 5 4 3 3 3 3 3 3 3 3 3 3 3 3 3
0 1 1 1 1 2 2 2 2 2 2 2 2 2 2 2 2 2 2 2 2 3 3 3 3 3 4 5 5 5 5 4 3 3 3 3 3 3 3 4 4 4 4
Wind_Direction
201 192 192 189 184 181 180 179 176 171 166 162 163 165 168 162 157 152 157 164 165 173 179 179 180 196 218 235 243 247 252 285 304 290 294 280 261 265 277 279 289 297 302
200 193 188 188 189 187 186 184 182 177 176 174 168 166 159 164 160 156 158 160 161 168 184 193 201 208 220 227 232 232 245 263 272 284 291 288 271 264 274 275 284 292 297
208 199 195 192 190 191 190 188 185 181 179 172 158 143 137 141 163 171 171 174 175 177 191 208 214 217 225 229 229 231 236 246 251 269 279 286 285 302 273 277 281 289 295
217 208 202 197 194 192 189 189 184 181 178 173 172 171 177 184 190 183 178 177 181 186 190 202 219 224 229 231 232 234 242 242 245 256 266 277 292 287 290 286 289 294 294
220 212 207 202 196 189 186 185 181 179 177 179 180 184 189 187 173 170 175 179 179 184 186 196 212 234 242 239 237 236 238 239 245 250 263 266 273 272 278 289 300 298 297
226 219 203 194 186 180 179 179 178 179 178 180 183 189 188 181 173 178 180 183 182 183 184 197 209 226 247 253 251 245 241 243 248 251 252 259 263 273 276 284 298 300 303
220 206 189 183 177 175 174 176 175 177 178 180 184 187 188 186 186 185 187 187 189 195 197 208 221 227 243 254 256 247 245 247 250 251 254 257 262 271 275 281 292 297 300
193 188 183 180 175 173 171 172 173 174 175 179 182 184 184 185 185 186 187 193 196 195 198 219 232 238 244 255 259 258 255 251 252 256 257 258 263 265 266 272 286 296 296
118 145 158 162 163 165 168 170 170 170 173 175 174 177 178 178 175 176 180 187 189 185 194 215 232 243 251 261 266 263 264 263 258 257 258 260 264 265 268 269 271 278 289
93 103 122 131 139 149 152 157 165 167 169 170 169 170 172 171 168 168 172 174 182 189 198 216 237 250 260 264 264 267 272 270 269 266 263 265 269 270 268 266 268 269 275
95 95 100 106 113 116 123 132 145 149 154 158 160 160 160 161 162 165 169 171 179 189 204 223 242 253 262 266 266 268 272 274 277 277 272 269 270 271 271 270 268 269 272
87 90 93 101 106 110 113 118 124 133 142 148 150 150 149 151 155 159 165 170 178 187 208 225 242 255 261 265 266 272 274 273 276 278 278 280 279 273 274 273 272 272 271
83 84 88 92 97 100 100 101 105 109 117 130 140 142 143 146 151 154 156 167 182 195 214 229 244 257 266 269 270 271 273 274 276 278 280 284 286 284 281 277 276 276 276
89 85 84 84 87 90 92 90 92 96 103 116 127 131 134 138 141 143 154 174 194 208 228 242 257 267 270 270 271 272 274 277 281 283 283 285 284 285 288 284 282 286 286
100 93 87 81 80 80 82 84 83 85 93 101 111 115 110 109 114 123 151 188 220 229 241 255 267 271 270 271 273 274 274 277 282 285 288 290 294 296 293 292 294 291 286
120 105 93 82 75 72 74 77 73 71 80 89 89 95 101 100 103 113 142 221 243 245 252 259 263 270 276 283 277 277 273 276 278 283 288 290 291 296 297 297 296 295 289
144 131 113 93 72 61 66 70 68 70 75 76 73 72 85 95 94 102 206 273 268 263 262 266 266 269 281 284 277 274 275 272 276 280 284 291 295 297 294 297 298 302 301
147 140 126 91 63 57 63 69 72 74 72 68 58 44 48 47 24 340 290 286 275 265 263 267 269 272 282 289 277 275 270 271 274 278 282 284 291 301 304 304 307 311 311
142 121 106 91 75 65 67 81 78 76 68 49 30 19 8 351 324 305 300 292 276 268 269 269 271 275 287 291 279 276 268 269 277 285 292 292 294 310 310 305 307 310 314
105 97 87 76 67 56 68 84 77 69 41 3 350 351 350 329 311 304 298 287 272 271 273 273 277 279 286 299 290 278 264 267 279 293 299 307 306 310 311 304 303 304 309
88 86 87 72 48 37 62 71 54 13 340 332 332 340 343 324 315 311 300 291 276 275 279 282 289 288 295 308 311 298 279 271 279 286 292 299 309 310 313 309 300 300 304
86 81 78 61 38 27 44 53 22 349 336 331 334 337 335 328 315 312 309 303 282 279 282 287 302 307 313 319 321 319 309 295 282 286 292 300 312 311 311 308 308 309 308
86 81 86 67 36 20 19 26 346 336 325 324 328 328 326 320 309 304 303 302 287 274 283 289 299 311 315 326 337 332 328 320 299 294 304 308 309 307 305 315 317 312 305
76 73 75 57 20 7 359 341 328 322 317 318 322 318 314 314 316 308 302 294 280 273 279 286 294 306 312 315 321 321 319 314 301 295 303 307 308 303 308 311 311 306 303
37 37 47 13 344 345 344 339 332 321 313 315 315 312 305 303 313 315 311 296 285 271 266 273 279 287 294 309 318 313 304 300 294 297 292 293 294 299 302 303 306 308 306
38 30 16 351 333 336 334 328 319 306 300 304 306 304 302 304 304 308 313 321 294 292 282 277 278 291 295 306 309 312 311 307 300 297 285 286 291 296 299 303 306 306 305
Height
1498 1499 1501 1504 1507 1510 1513 1515 1518 1521 1523 1526 1528 1530 1531 1533 1534 1535 1537 1537 1538 1538 1539 1539 1539 1539 1539 1539 1539 1538 1538 1537 1536 1535 1534 1533 1532 1530 1529 1528 1527 1525 1524
1495 1496 1498 1501 1503 1506 1509 1512 1515 1518 1520 1523 1525 1527 1529 1530 1532 1533 1534 1535 1535 1536 1536 1537 1537 1537 1537 1537 1536 1536 1535 1534 1534 1533 1532 1531 1531 1528 1526 1525 1523 1522 1521
1491 1493 1495 1497 1500 1502 1505 1508 1511 1514 1517 1519 1522 1524 1526 1528 1529 1530 1531 1532 1533 1533 1534 1534 1534 1534 1534 1534 1533 1533 1532 1532 1531 1531 1531 1530 1528 1526 1524 1522 1521 1519 1517
1489 1490 1491 1494 1496 1499 1502 1505 1508 1511 1513 1516 1518 1521 1522 1524 1525 1527 1528 1529 1530 1530 1531 1531 1531 1531 1531 1531 1530 1530 1530 1529 1528 1528 1527 1528 1526 1525 1521 1519 1518 1516 1514
1485 1486 1488 1490 1492 1495 1498 1501 1504 1507 1510 1512 1515 1518 1520 1522 1523 1524 1525 1526 1527 1527 1528 1528 1528 1528 1528 1528 1527 1527 1527 1526 1525 1525 1524 1524 1523 1522 1520 1516 1514 1513 1511
1482 1483 1485 1487 1489 1492 1495 1497 1500 1503 1506 1509 1512 1514 1516 1518 1519 1521 1522 1523 1524 1524 1525 1525 1525 1525 1525 1525 1524 1524 1523 1523 1522 1522 1521 1520 1519 1518 1517 1514 1511 1508 1507
1479 1480 1482 1483 1486 1488 1491 1494 1497 1500 1503 1506 1509 1511 1513 1515 1516 1518 1519 1520 1521 1521 1521 1522 1522 1522 1522 1521 1521 1520 1520 1519 1519 1518 1517 1516 1515 1514 1513 1511 1508 1505 1502
1477 1477 1479 1481 1483 1486 1488 1491 1494 1497 1500 1503 1505 1508 1510 1512 1513 1515 1516 1517 1518 1518 1518 1519 1519 1519 1519 1518 1518 1517 1516 1516 1515 1515 1514 1513 1511 1510 1509 1508 1505 1502 1499
1475 1476 1477 1479 1481 1483 1486 1488 1491 1494 1497 1500 1502 1505 1507 1508 1510 1512 1513 1514 1515 1515 1516 1516 1516 1516 1516 1515 1514 1513 1513 1512 1512 1511 1510 1509 1507 1506 1505 1504 1502 1501 1496
1474 1475 1476 1478 1480 1482 1484 1487 1489 1492 1494 1497 1499 1502 1504 1506 1507 1509 1510 1511 1512 1512 1512 1513 1513 1513 1513 1512 1511 1510 1509 1509 1508 1507 1506 1505 1503 1502 1501 1499 1498 1497 1495
1474 1475 1475 1477 1479 1481 1483 1485 1487 1490 1492 1494 1497 1499 1501 1502 1504 1506 1507 1508 1509 1509 1509 1510 1510 1510 1509 1508 1508 1507 1506 1505 1504 1503 1502 1500 1499 1498 1496 1495 1494 1493 1491
1474 1475 1475 1476 1478 1479 1481 1483 1485 1488 1490 1492 1494 1496 1498 1500 1501 1503 1504 1505 1505 1506 1506 1506 1506 1506 1505 1505 1504 1503 1502 1501 1500 1499 1498 1496 1495 1494 1492 1491 1489 1488 1486
1474 1475 1475 1476 1477 1479 1480 1482 1484 1486 1488 1490 1492 1494 1495 1497 1498 1500 1501 1502 1502 1503 1503 1503 1503 1502 1502 1501 1500 1499 1499 1497 1496 1495 1494 1492 1491 1489 1488 1486 1485 1483 1481
1474 1475 1476 1476 1477 1478 1480 1481 1483 1485 1487 1488 1490 1491 1493 1494 1496 1497 1498 1499 1499 1499 1499 1499 1499 1499 1498 1497 1496 1495 1494 1493 1492 1491 1490 1488 1487 1485 1483 1482 1480 1479 1477
1475 1475 1476 1476 1477 1478 1479 1480 1482 1484 1485 1487 1488 1489 1491 1492 1493 1494 1495 1495 1496 1496 1496 1496 1495 1495 1494 1493 1492 1491 1490 1489 1488 1487 1485 1484 1483 1481 1480 1478 1476 1474 1472
1475 1475 1476 1476 1477 1478 1479 1480 1481 1483 1484 1485 1486 1487 1489 1490 1491 1491 1492 1492 1492 1492 1492 1492 1491 1491 1490 1489 1489 1488 1486 1485 1484 1482 1481 1480 1478 1477 1475 1474 1472 1471 1469
1474 1475 1475 1476 1477 1477 1478 1479 1481 1482 1483 1484 1485 1486 1487 1487 1488 1488 1489 1489 1489 1488 1488 1488 1487 1487 1486 1486 1485 1484 1483 1481 1480 1478 1477 1475 1474 1473 1471 1470 1468 1467 1465
1474 1475 1475 1476 1477 1477 1478 1479 1480 1481 1482 1483 1484 1484 1485 1485 1485 1485 1485 1485 1485 1485 1484 1484 1483 1483 1482 1481 1481 1480 1479 1477 1476 1475 1473 1472 1470 1469 1468 1466 1464 1463 1461
1473 1474 1475 1475 1476 1477 1477 1478 1479 1480 1481 1481 1482 1482 1483 1483 1483 1482 1482 1482 1482 1481 1480 1480 1480 1479 1478 1478 1477 1476 1474 1473 1472 1471 1470 1468 1467 1466 1464 1463 1461 1459 1457
1472 1473 1474 1474 1475 1476 1477 1477 1478 1478 1479 1480 1480 1480 1480 1480 1480 1479 1479 1478 1478 1477 1477 1477 1476 1475 1475 1474 1473 1472 1471 1470 1469 1467 1466 1465 1464 1463 1461 1460 1458 1456 1454
1471 1472 1473 1474 1474 1475 1476 1476 1476 1477 1477 1478 1478 1478 1478 1478 1477 1476 1476 1475 1475 1474 1474 1473 1473 1472 1471 1470 1470 1469 1468 1467 1466 1464 1463 1462 1461 1460 1458 1457 1455 1453 1452
1470 1471 1472 1472 1473 1474 1474 1474 1474 1475 1475 1476 1476 1476 1475 1475 1474 1473 1473 1472 1472 1471 1470 1470 1469 1469 1468 1467 1466 1466 1465 1464 1463 1461 1460 1459 1458 1456 1455 1454 1452 1451 1449
1469 1470 1471 1471 1472 1472 1473 1473 1473 1473 1474 1474 1474 1473 1473 1472 1472 1471 1470 1469 1468 1468 1467 1467 1466 1465 1465 1464 1463 1463 1462 1461 1460 1458 1457 1456 1454 1453 1452 1451 1449 1448 1446
1469 1469 1470 1470 1470 1471 1471 1471 1471 1472 1472 1472 1471 1471 1470 1470 1469 1468 1467 1466 1466 1465 1464 1464 1463 1462 1462 1461 1460 1460 1459 1458 1456 1455 1454 1453 1452 1450 1449 1448 1446 1445 1443
1468 1468 1468 1468 1469 1469 1469 1469 1469 1469 1469 1469 1469 1468 1468 1467 1466 1465 1465 1464 1463 1463 1462 1461 1461 1460 1459 1458 1458 1457 1456 1455 1454 1452 1451 1450 1448 1447 1446 1444 1443 1442 1440
1466 1466 1467 1467 1467 1467 1467 1467 1467 1467 1467 1466 1466 1466 1465 1464 1463 1462 1462 1461 1461 1460 1459 1458 1458 1457 1457 1456 1455 1454 1453 1452 1451 1449 1448 1446 1445 1444 1443 1441 1440 1438 1437